TimeCST,TemperatureF,Dew PointF,Humidity,Sea Level PressureIn,VisibilityMPH,Wind Direction,Wind SpeedMPH,Gust SpeedMPH,PrecipitationIn,Events,Conditions,WindDirDegrees,DateUTC
12:15 AM,24.8,17.6,74,30.27,10.0,Calm,Calm,-,N/A,,Scattered Clouds,0,2013-01-23 06:15:00
12:35 AM,24.8,17.6,74,30.26,10.0,ESE,6.9,-,N/A,,Scattered Clouds,120,2013-01-23 06:35:00
12:55 AM,24.8,17.6,74,30.26,10.0,ESE,5.8,-,N/A,,Scattered Clouds,120,2013-01-23 06:55:00
1:15 AM,24.8,17.6,74,30.26,10.0,ESE,4.6,-,N/A,,Scattered Clouds,110,2013-01-23 07:15:00
1:35 AM,24.8,17.6,74,30.25,10.0,ESE,5.8,-,N/A,,Mostly Cloudy,120,2013-01-23 07:35:00
1:55 AM,24.8,17.6,74,30.26,10.0,SE,4.6,-,N/A,,Mostly Cloudy,130,2013-01-23 07:55:00
2:15 AM,24.8,17.6,74,30.25,10.0,SE,4.6,-,N/A,,Scattered Clouds,130,2013-01-23 08:15:00
2:55 AM,24.8,19.4,80,30.25,10.0,SE,5.8,-,N/A,,Partly Cloudy,140,2013-01-23 08:55:00
3:15 AM,23.0,19.4,86,30.25,10.0,SE,5.8,-,N/A,,Scattered Clouds,140,2013-01-23 09:15:00
3:55 AM,23.0,19.4,86,30.24,10.0,SE,5.8,-,N/A,,Partly Cloudy,130,2013-01-23 09:55:00
4:15 AM,23.0,19.4,86,30.24,10.0,SE,5.8,-,N/A,,Clear,140,2013-01-23 10:15:00
4:35 AM,23.0,19.4,86,30.24,10.0,ESE,3.5,-,N/A,,Clear,110,2013-01-23 10:35:00
4:55 AM,23.0,19.4,86,30.24,10.0,ESE,3.5,-,N/A,,Clear,120,2013-01-23 10:55:00
5:15 AM,23.0,19.4,86,30.24,10.0,ESE,3.5,-,N/A,,Clear,120,2013-01-23 11:15:00
5:35 AM,23.0,19.4,86,30.23,10.0,SE,5.8,-,N/A,,Clear,140,2013-01-23 11:35:00
6:45 AM,23.0,19.4,86,30.24,10.0,Calm,Calm,-,N/A,,Clear,0,2013-01-23 12:45:00
7:45 AM,23.0,19.4,86,30.24,8.0,SE,5.8,-,N/A,,Partly Cloudy,130,2013-01-23 13:45:00
8:45 AM,26.6,21.2,80,30.25,10.0,SE,4.6,-,N/A,,Clear,130,2013-01-23 14:45:00
9:45 AM,32.0,23.0,69,30.26,10.0,Calm,Calm,-,N/A,,Partly Cloudy,0,2013-01-23 15:45:00
10:55 AM,41.0,26.6,57,30.25,10.0,ESE,3.5,-,N/A,,Partly Cloudy,110,2013-01-23 16:55:00
11:50 AM,50.0,35.6,58,30.21,10.0,Calm,Calm,-,N/A,,Partly Cloudy,0,2013-01-23 17:50:00
12:50 PM,53.6,37.4,54,30.17,10.0,West,3.5,-,N/A,,Scattered Clouds,280,2013-01-23 18:50:00
1:50 PM,55.4,37.4,51,30.16,10.0,WNW,5.8,-,N/A,,Scattered Clouds,300,2013-01-23 19:50:00
2:45 PM,57.2,37.4,48,30.15,10.0,West,3.5,-,N/A,,Mostly Cloudy,270,2013-01-23 20:45:00
3:57 PM,59.0,37.4,45,30.15,10.0,NW,6.9,-,N/A,,Scattered Clouds,320,2013-01-23 21:57:00
4:50 PM,57.2,37.4,48,30.14,10.0,Calm,Calm,-,N/A,,Mostly Cloudy,0,2013-01-23 22:50:00
5:45 PM,50.0,37.4,62,30.15,10.0,Calm,Calm,-,N/A,,Mostly Cloudy,0,2013-01-23 23:45:00
5:50 PM,50.0,28.4,43,30.05,10.0,SW,8.1,-,N/A,,Overcast,230,2013-01-23 23:50:00
6:45 PM,50.0,37.4,62,30.16,10.0,Calm,Calm,-,N/A,,Mostly Cloudy,0,2013-01-24 00:45:00
7:45 PM,46.4,37.4,71,30.19,10.0,NW,4.6,-,N/A,,Mostly Cloudy,320,2013-01-24 01:45:00
7:55 PM,44.6,35.6,71,30.20,10.0,NNW,4.6,-,N/A,,Clear,340,2013-01-24 01:55:00
8:15 PM,48.2,37.4,66,30.21,10.0,North,5.8,-,N/A,,Clear,350,2013-01-24 02:15:00
8:35 PM,46.4,37.4,71,30.22,10.0,North,8.1,-,N/A,,Clear,360,2013-01-24 02:35:00
8:45 PM,46.4,37.4,71,30.22,10.0,North,9.2,-,N/A,,Mostly Cloudy,360,2013-01-24 02:45:00
8:55 PM,46.4,37.4,71,30.22,10.0,North,9.2,-,N/A,,Clear,350,2013-01-24 02:55:00
9:15 PM,44.6,35.6,71,30.23,10.0,North,6.9,-,N/A,,Clear,350,2013-01-24 03:15:00
9:35 PM,44.6,35.6,71,30.23,10.0,North,10.4,-,N/A,,Clear,360,2013-01-24 03:35:00
9:55 PM,42.8,35.6,76,30.25,10.0,North,9.2,-,N/A,,Clear,350,2013-01-24 03:55:00
10:15 PM,41.0,33.8,76,30.25,10.0,North,5.8,-,N/A,,Clear,10,2013-01-24 04:15:00
10:35 PM,41.0,32.0,70,30.26,10.0,NNE,5.8,-,N/A,,Scattered Clouds,20,2013-01-24 04:35:00
10:55 PM,41.0,30.2,65,30.26,10.0,NNE,8.1,-,N/A,,Mostly Cloudy,20,2013-01-24 04:55:00
11:15 PM,41.0,28.4,61,30.26,10.0,NNE,4.6,-,N/A,,Overcast,30,2013-01-24 05:15:00
11:35 PM,41.0,28.4,61,30.26,10.0,NNE,3.5,-,N/A,,Overcast,30,2013-01-24 05:35:00
11:55 PM,41.0,28.4,61,30.28,10.0,North,5.8,-,N/A,,Overcast,10,2013-01-24 05:55:00